| time (UTC) | temp F | wind direction | speed knots | gust knots | rain 1hr in | rain 24hr in | rain mn in | humidity % | barometer mb |
| 20260504020703 | 36 | 225 | 0.9 | 0.0 | 0.00 | 0.00 | 0.38 | 80 | 1012.3 |
| 20260504020204 | 36 | 225 | 0.9 | 0.0 | 0.00 | 0.00 | 0.38 | 80 | 1012.3 |
| 20260504015704 | 36 | 225 | 0.9 | 0.0 | 0.00 | 0.00 | 0.38 | 80 | 1012.4 |
| 20260504015204 | 36 | 225 | 0.9 | 0.0 | 0.00 | 0.00 | 0.38 | 80 | 1012.4 |
| 20260504013204 | 36 | 270 | 0.9 | 0.0 | 0.00 | 0.00 | 0.38 | 80 | 1012.4 |
| 20260504012704 | 36 | 225 | 1.7 | 0.0 | 0.00 | 0.00 | 0.00 | 80 | 1012.3 |
| 20260504012204 | 36 | 180 | 1.7 | 0.0 | 0.00 | 0.00 | 0.00 | 80 | 1012.4 |
| 20260504011704 | 36 | 270 | 0.9 | 0.0 | 0.00 | 0.00 | 0.00 | 80 | 1012.3 |
| 20260504011204 | 36 | 225 | 0.0 | 0.0 | 0.00 | 0.00 | 0.00 | 80 | 1012.3 |
| 20260504010704 | 36 | 225 | 0.9 | 0.0 | 0.00 | 0.00 | 0.00 | 80 | 1012.2 |
| 20260504010204 | 36 | 225 | 1.7 | 0.0 | 0.00 | 0.00 | 0.00 | 80 | 1012.3 |
| 20260504005704 | 36 | 270 | 0.9 | 0.0 | 0.00 | 0.00 | 0.00 | 80 | 1012.3 |
| 20260504005204 | 36 | 225 | 0.9 | 0.0 | 0.00 | 0.00 | 0.00 | 80 | 1012.2 |
| 20260504004704 | 37 | 225 | 0.9 | 0.0 | 0.00 | 0.00 | 0.00 | 81 | 1012.3 |
| 20260504004204 | 37 | 225 | 1.7 | 0.0 | 0.00 | 0.00 | 0.00 | 81 | 1012.2 |
| 20260504003704 | 36 | 180 | 0.9 | 0.0 | 0.00 | 0.00 | 0.04 | 81 | 1012.1 |
| 20260504003204 | 36 | 180 | 0.9 | 0.0 | 0.00 | 0.00 | 0.04 | 81 | 1012.2 |
| 20260504002704 | 36 | 225 | 0.0 | 0.0 | 0.00 | 0.00 | 0.04 | 80 | 1012.1 |
| 20260504002204 | 36 | 270 | 0.0 | 0.0 | 0.00 | 0.00 | 0.04 | 80 | 1012.1 |
| 20260504001704 | 36 | 270 | 0.0 | 0.0 | 0.00 | 0.00 | 0.04 | 80 | 1012.2 |
| 20260504001204 | 36 | 225 | 0.0 | 0.0 | 0.00 | 0.00 | 0.04 | 80 | 1012.2 |
| 20260504000704 | 37 | 225 | 0.0 | 0.0 | 0.00 | 0.00 | 0.04 | 80 | 1012.1 |
| 20260504000204 | 37 | 225 | 0.0 | 0.0 | 0.00 | 0.00 | 0.04 | 80 | 1012.2 |
| 20260503235204 | 37 | 225 | 0.0 | 0.0 | 0.00 | 0.00 | 0.04 | 80 | 1012.2 |
| 20260503234704 | 37 | 225 | 0.0 | 0.0 | 0.00 | 0.00 | 0.04 | 80 | 1012.1 |
| 20260503233704 | 37 | 270 | 0.0 | 0.0 | 0.00 | 0.00 | 0.04 | 80 | 1012.1 |
| 20260503233204 | 37 | 225 | 0.0 | 0.0 | 0.00 | 0.00 | 0.04 | 80 | 1012.0 |
| 20260503232703 | 37 | 180 | 0.0 | 0.0 | 0.00 | 0.00 | 0.04 | 80 | 1012.3 |
| 20260503232204 | 37 | 270 | 0.0 | 0.0 | 0.00 | 0.00 | 0.04 | 80 | 1012.2 |
| 20260503231704 | 37 | 225 | 0.0 | 0.0 | 0.00 | 0.00 | 0.04 | 80 | 1012.2 |
| 20260503231204 | 37 | 225 | 0.0 | 0.0 | 0.00 | 0.00 | 0.04 | 80 | 1012.2 |
| 20260503230704 | 37 | 270 | 0.0 | 0.0 | 0.00 | 0.00 | 0.04 | 80 | 1012.2 |
| 20260503225704 | 37 | 225 | 0.0 | 0.0 | 0.00 | 0.00 | 0.04 | 80 | 1012.2 |
| 20260503224704 | 37 | 225 | 0.0 | 0.0 | 0.00 | 0.00 | 0.04 | 80 | 1012.0 |
| 20260503224204 | 37 | 225 | 0.0 | 0.0 | 0.00 | 0.00 | 0.00 | 80 | 1012.0 |
| 20260503223704 | 37 | 270 | 0.0 | 0.0 | 0.00 | 0.00 | 0.38 | 80 | 1011.9 |
| 20260503223205 | 37 | 225 | 0.0 | 0.0 | 0.00 | 0.00 | 0.38 | 80 | 1012.0 |
| 20260503222704 | 37 | 225 | 0.0 | 0.0 | 0.00 | 0.00 | 0.38 | 80 | 1012.0 |
| 20260503222204 | 37 | 225 | 0.0 | 0.0 | 0.00 | 0.00 | 0.38 | 80 | 1012.0 |
| 20260503221704 | 38 | 225 | 0.0 | 0.0 | 0.00 | 0.00 | 0.38 | 80 | 1011.9 |
| 20260503221204 | 37 | 225 | 0.0 | 0.0 | 0.00 | 0.00 | 0.38 | 80 | 1011.9 |
| 20260503220704 | 38 | 225 | 0.0 | 0.0 | 0.00 | 0.00 | 0.38 | 80 | 1011.9 |
| 20260503220204 | 38 | 270 | 0.0 | 0.0 | 0.00 | 0.00 | 0.38 | 80 | 1011.9 |
| 20260503215704 | 38 | 225 | 0.0 | 0.0 | 0.00 | 0.00 | 0.38 | 80 | 1011.9 |
| 20260503215204 | 38 | 225 | 0.0 | 0.0 | 0.00 | 0.00 | 0.38 | 80 | 1011.9 |
| 20260503214204 | 38 | 270 | 0.0 | 0.0 | 0.00 | 0.00 | 0.38 | 79 | 1011.9 |
| 20260503213704 | 39 | 270 | 0.0 | 0.0 | 0.00 | 0.00 | 0.38 | 79 | 1011.9 |
| 20260503213204 | 39 | 270 | 0.0 | 0.0 | 0.00 | 0.00 | 0.38 | 79 | 1011.7 |
| 20260503212704 | 39 | 270 | 0.0 | 0.0 | 0.00 | 0.00 | 0.38 | 78 | 1011.8 |
| 20260503212204 | 39 | 225 | 0.0 | 0.0 | 0.00 | 0.00 | 0.38 | 78 | 1012.0 |
| 20260503211704 | 39 | 225 | 0.0 | 0.0 | 0.00 | 0.00 | 0.38 | 78 | 1011.9 |
| 20260503211203 | 39 | 225 | 0.0 | 0.0 | 0.00 | 0.00 | 0.38 | 78 | 1011.9 |
| 20260503210204 | 39 | 270 | 0.9 | 0.0 | 0.00 | 0.00 | 0.38 | 76 | 1012.1 |
| 20260503205704 | 40 | 225 | 0.9 | 0.0 | 0.00 | 0.00 | 0.38 | 76 | 1012.0 |
| 20260503205204 | 40 | 225 | 0.9 | 0.0 | 0.00 | 0.00 | 0.38 | 77 | 1011.8 |
| 20260503204703 | 40 | 225 | 0.9 | 0.0 | 0.00 | 0.00 | 0.38 | 77 | 1011.9 |
| 20260503204204 | 40 | 225 | 0.9 | 0.0 | 0.00 | 0.00 | 0.38 | 77 | 1012.0 |
| 20260503203704 | 39 | 225 | 0.9 | 0.0 | 0.00 | 0.00 | 0.38 | 77 | 1012.1 |
| 20260503203204 | 39 | 225 | 0.9 | 0.0 | 0.00 | 0.00 | 0.38 | 76 | 1011.9 |
| 20260503202704 | 40 | 270 | 1.7 | 0.0 | 0.00 | 0.00 | 0.38 | 75 | 1012.0 |
| 20260503202204 | 40 | 270 | 0.0 | 0.0 | 0.00 | 0.00 | 0.38 | 76 | 1012.0 |
| 20260503201704 | 40 | 225 | 0.0 | 0.0 | 0.00 | 0.00 | 0.38 | 76 | 1012.1 |
| 20260503201204 | 40 | 225 | 0.0 | 0.0 | 0.00 | 0.00 | 0.38 | 76 | 1011.9 |
| 20260503200704 | 40 | 270 | 0.0 | 0.0 | 0.00 | 0.00 | 0.38 | 77 | 1012.1 |
| 20260503200204 | 40 | 225 | 0.0 | 0.0 | 0.00 | 0.00 | 0.38 | 77 | 1011.9 |
| 20260503195703 | 40 | 225 | 0.0 | 0.0 | 0.00 | 0.00 | 0.38 | 77 | 1012.0 |
| 20260503195204 | 40 | 225 | 0.0 | 0.0 | 0.00 | 0.00 | 0.38 | 76 | 1011.9 |
| 20260503194704 | 40 | 225 | 0.0 | 0.0 | 0.00 | 0.00 | 0.38 | 76 | 1012.0 |
| 20260503193704 | 40 | 225 | 0.0 | 0.0 | 0.00 | 0.00 | 0.38 | 74 | 1012.0 |
| 20260503193204 | 40 | 225 | 0.0 | 0.0 | 0.00 | 0.00 | 0.38 | 74 | 1012.0 |
| 20260503192704 | 40 | 225 | 0.0 | 0.0 | 0.00 | 0.00 | 0.38 | 74 | 1011.9 |
| 20260503192204 | 41 | 225 | 0.0 | 0.0 | 0.00 | 0.00 | 0.38 | 73 | 1012.0 |
| 20260503191704 | 41 | 225 | 0.0 | 0.0 | 0.00 | 0.00 | 0.38 | 73 | 1011.9 |
| 20260503191203 | 42 | 225 | 0.0 | 0.0 | 0.00 | 0.00 | 0.38 | 74 | 1011.9 |
| 20260503190704 | 41 | 225 | 0.0 | 0.0 | 0.00 | 0.00 | 0.38 | 74 | 1012.0 |
| 20260503190204 | 41 | 225 | 0.0 | 0.0 | 0.00 | 0.00 | 0.38 | 74 | 1011.9 |
| 20260503185704 | 41 | 225 | 0.0 | 0.0 | 0.00 | 0.00 | 0.38 | 73 | 1011.9 |
| 20260503185204 | 42 | 225 | 0.0 | 0.0 | 0.00 | 0.00 | 0.38 | 73 | 1011.8 |
| 20260503184704 | 42 | 225 | 0.0 | 0.0 | 0.00 | 0.00 | 0.38 | 73 | 1011.9 |
| 20260503184204 | 42 | 225 | 0.0 | 0.0 | 0.00 | 0.00 | 0.38 | 73 | 1011.6 |
| 20260503183704 | 42 | 225 | 0.0 | 0.0 | 0.00 | 0.00 | 0.38 | 73 | 1011.7 |
| 20260503183204 | 42 | 225 | 0.0 | 0.0 | 0.00 | 0.00 | 0.38 | 72 | 1011.7 |
| 20260503182204 | 42 | 225 | 0.0 | 0.0 | 0.00 | 0.00 | 0.38 | 73 | 1011.5 |
| 20260503181703 | 43 | 225 | 0.0 | 0.0 | 0.00 | 0.00 | 0.38 | 73 | 1011.4 |
| 20260503180704 | 43 | 225 | 0.0 | 0.0 | 0.00 | 0.00 | 0.38 | 71 | 1011.3 |
| 20260503180204 | 44 | 225 | 0.0 | 0.0 | 0.00 | 0.00 | 0.38 | 70 | 1011.4 |
| 20260503175704 | 44 | 270 | 0.0 | 0.0 | 0.00 | 0.00 | 0.38 | 68 | 1011.3 |
| 20260503174204 | 46 | 225 | 0.0 | 0.0 | 0.00 | 0.00 | 0.38 | 57 | 1011.4 |
| 20260503173703 | 46 | 225 | 0.0 | 0.0 | 0.00 | 0.00 | 0.38 | 56 | 1011.5 |
| 20260503173204 | 47 | 225 | 0.0 | 0.0 | 0.00 | 0.00 | 0.38 | 55 | 1011.1 |
| 20260503172204 | 48 | 180 | 0.0 | 0.0 | 0.00 | 0.00 | 0.38 | 53 | 1011.1 |
| 20260503171703 | 48 | 270 | 1.7 | 0.0 | 0.00 | 0.00 | 0.38 | 53 | 1011.0 |
| 20260503171204 | 49 | 270 | 0.9 | 0.0 | 0.00 | 0.00 | 0.38 | 51 | 1010.7 |
| 20260503170703 | 50 | 248 | 1.7 | 0.0 | 0.00 | 0.00 | 0.38 | 49 | 1010.8 |
| 20260503160204 | 56 | 45 | 3.5 | 0.0 | 0.00 | 0.00 | 0.38 | 33 | 1009.8 |
| 20260503150705 | 56 | 68 | 3.5 | 0.0 | 0.00 | 0.00 | 0.38 | 32 | 1009.6 |
| 20260503150204 | 56 | 45 | 5.2 | 0.0 | 0.00 | 0.00 | 0.38 | 32 | 1009.7 |
| 20260503131204 | 55 | 0 | 7.8 | 0.0 | 0.00 | 0.00 | 0.38 | 31 | 1011.0 |
| 20260503130704 | 56 | 315 | 6.1 | 0.0 | 0.00 | 0.00 | 0.38 | 31 | 1010.7 |
| 20260503130204 | 56 | 315 | 6.1 | 0.0 | 0.00 | 0.00 | 0.38 | 30 | 1010.4 |
| 20260503120204 | 56 | 315 | 2.6 | 0.0 | 0.00 | 0.00 | 0.38 | 34 | 1010.9 |
| 20260503110704 | 55 | 45 | 2.6 | 0.0 | 0.00 | 0.00 | 0.38 | 37 | 1011.0 |
| 20260503110204 | 54 | 0 | 3.5 | 0.0 | 0.00 | 0.00 | 0.38 | 40 | 1011.1 |
| 20260503100204 | 52 | 90 | 6.1 | 0.0 | 0.00 | 0.00 | 0.38 | 40 | 1011.3 |
| 20260503090204 | 52 | 0 | 7.0 | 0.0 | 0.00 | 0.00 | 0.38 | 45 | 1011.6 |
| 20260503081204 | 49 | 45 | 3.5 | 0.0 | 0.00 | 0.00 | 0.38 | 46 | 1011.5 |
| 20260503080704 | 50 | 315 | 7.0 | 0.0 | 0.00 | 0.00 | 0.38 | 50 | 1011.5 |
| 20260503080204 | 49 | 0 | 7.8 | 0.0 | 0.00 | 0.00 | 0.38 | 52 | 1011.5 |
| 20260503072704 | 50 | 45 | 3.5 | 0.0 | 0.00 | 0.00 | 0.38 | 60 | 1011.5 |
| 20260503072203 | 50 | 270 | 3.5 | 0.0 | 0.00 | 0.00 | 0.38 | 60 | 1011.4 |
| 20260503071704 | 49 | 45 | 3.5 | 0.0 | 0.00 | 0.00 | 0.38 | 60 | 1011.5 |
| 20260503071204 | 49 | 90 | 2.6 | 0.0 | 0.00 | 0.00 | 0.38 | 60 | 1011.4 |
| 20260503070704 | 48 | 45 | 9.6 | 0.0 | 0.00 | 0.00 | 0.38 | 60 | 1011.3 |
| 20260503070204 | 48 | 0 | 7.0 | 0.0 | 0.00 | 0.00 | 0.38 | 60 | 1011.3 |
| 20260503060204 | 47 | 45 | 1.7 | 0.0 | 0.00 | 0.00 | 0.00 | 71 | 1010.9 |
| 20260503054704 | 47 | 45 | 3.5 | 0.0 | 0.00 | 0.00 | 0.00 | 75 | 1010.9 |
| 20260503053204 | 46 | 180 | 1.7 | 0.0 | 0.00 | 0.00 | 0.00 | 81 | 1010.7 |
| 20260503052703 | 45 | 45 | 2.6 | 0.0 | 0.00 | 0.00 | 0.00 | 88 | 1010.7 |
| 20260503052204 | 44 | 0 | 1.7 | 0.0 | 0.00 | 0.00 | 0.00 | 90 | 1010.6 |
| 20260503051204 | 45 | 45 | 3.5 | 0.0 | 0.00 | 0.00 | 0.00 | 94 | 1010.7 |
| 20260503050204 | 45 | 45 | 1.7 | 0.0 | 0.00 | 0.00 | 0.00 | 97 | 1010.6 |
| 20260503045704 | 45 | 45 | 1.7 | 0.0 | 0.00 | 0.00 | 0.00 | 98 | 1010.6 |
| 20260503045203 | 46 | 90 | 1.7 | 0.0 | 0.00 | 0.00 | 0.00 | 94 | 1010.4 |
| 20260503044704 | 47 | 90 | 0.0 | 0.0 | 0.00 | 0.00 | 0.00 | 94 | 1010.4 |
| 20260503044204 | 47 | 45 | 0.0 | 0.0 | 0.00 | 0.00 | 0.00 | 94 | 1010.6 |
| 20260503043704 | 45 | 315 | 0.0 | 0.0 | 0.00 | 0.00 | 0.00 | 98 | 1010.3 |
| 20260503042704 | 42 | 180 | 0.0 | 0.0 | 0.00 | 0.00 | 0.00 | 97 | 1010.2 |
| 20260503042203 | 40 | 270 | 0.0 | 0.0 | 0.00 | 0.00 | 0.00 | 97 | 1010.3 |
| 20260503041204 | 38 | 270 | 0.0 | 0.0 | 0.00 | 0.00 | 0.00 | 95 | 1010.3 |
| 20260503040704 | 37 | 270 | 0.0 | 0.0 | 0.00 | 0.00 | 0.00 | 95 | 1010.2 |
| 20260503040204 | 38 | 270 | 0.0 | 0.0 | 0.00 | 0.00 | 0.00 | 95 | 1010.2 |
| 20260503034204 | 37 | 270 | 0.9 | 0.0 | 0.00 | 0.00 | 0.00 | 95 | 1009.9 |
| 20260503033704 | 38 | 270 | 0.0 | 0.0 | 0.00 | 0.00 | 0.00 | 95 | 1009.7 |
| 20260503033204 | 38 | 135 | 0.0 | 0.0 | 0.00 | 0.00 | 0.00 | 95 | 1009.8 |
| 20260503032704 | 38 | 135 | 0.0 | 0.0 | 0.00 | 0.00 | 0.00 | 95 | 1009.8 |
| 20260503032204 | 37 | 135 | 0.0 | 0.0 | 0.00 | 0.00 | 0.00 | 94 | 1009.7 |
| 20260503031704 | 38 | 45 | 0.0 | 0.0 | 0.00 | 0.00 | 0.00 | 94 | 1009.7 |
| 20260503024704 | 38 | 270 | 1.7 | 0.0 | 0.00 | 0.00 | 0.00 | 93 | 1010.0 |
| 20260503024204 | 37 | 225 | 0.0 | 0.0 | 0.00 | 0.00 | 0.00 | 93 | 1010.0 |
| 20260503023204 | 37 | 270 | 0.9 | 0.0 | 0.00 | 0.00 | 0.00 | 92 | 1010.1 |
| 20260503022704 | 37 | 270 | 1.7 | 0.0 | 0.00 | 0.00 | 0.00 | 92 | 1010.0 |
| 20260503022204 | 37 | 270 | 0.0 | 0.0 | 0.00 | 0.00 | 0.00 | 92 | 1010.1 |
| 20260503021705 | 36 | 225 | 0.0 | 0.0 | 0.00 | 0.00 | 0.00 | 92 | 1010.0 |
| 20260503021204 | 36 | 225 | 0.0 | 0.0 | 0.00 | 0.00 | 0.00 | 92 | 1009.9 |